This demonstration page uses our WeatherBlox Daily Observations layout. Learn more.

Left ArrowRight Arrow

30.00354, -91.81873

Hourly Observations for July 23, 2022

Temp ( °F °C ) Dew Point ( °F °C ) Humidity (%) Winds ( mph kmh ) Pressure ( in mb ) Visibility ( mi km ) Precip ( " mm )
12:53 am 00:53 Clear 78 25.6 75 23.9 90 90 Calm 30.04 1017 10 16 0.00 0.00
1:53 am 01:53 Clear 78 25.6 75 23.9 90 90 E 5 7 30.03 1017 10 16 0.00 0.00
2:53 am 02:53 Clear 77 25 75 23.9 94 94 Calm 30.03 1017 10 16 0.00 0.00
3:53 am 03:53 Clear 77 25 75 23.9 94 94 NNE 5 7 30.04 1017 10 16 0.00 0.00
4:53 am 04:53 Clear 78 25.6 75 23.9 90 90 Calm 30.05 1018 10 16 0.00 0.00
5:53 am 05:53 Clear 78 25.6 75 23.9 90 90 ENE 3 6 30.06 1018 10 16 0.00 0.00
6:53 am 06:53 Sunny 78 25.6 75 23.9 90 90 undefined N/A 30.06 1018 10 16 0.00 0.00
7:53 am 07:53 Sunny 80 26.7 77 25 90 90 SSE 7 11 30.07 1018 10 16 0.00 0.00
8:53 am 08:53 Sunny 84 28.9 74 23.3 72 72 SSE 7 11 30.09 1019 10 16 0.00 0.00
9:53 am 09:53 Sunny 89 31.7 75 23.9 63 63 SSE 7 11 30.09 1019 10 16 0.00 0.00
10:53 am 10:53 Sunny 90 32.2 74 23.3 59 59 SSE 5 7 30.09 1019 10 16 0.00 0.00
11:36 am 11:36 Partly Cloudy with Nearby Thunderstorms 89 31.7 74 23.3 61 61 undefined N/A 30.09 1019 10 16 0.00 0.00
11:51 am 11:51 Mostly Cloudy with Light Rain 84 29 73 23 70 70 W 7 11 30.10 1019 10 16 0.00 0.00
11:53 am 11:53 Mostly Cloudy with Light Rain 84 28.9 74 23.3 72 72 W 6 9 30.09 1019 10 16 0.00 0.00
12:53 pm 12:53 Sunny 88 31.1 73 22.8 61 61 SSW 3 6 30.07 1018 10 16 0.00 0.00
1:53 pm 13:53 Sunny 91 32.8 76 24.4 61 61 S 9 15 30.06 1018 10 16 0.00 0.00
2:28 pm 14:28 Sunny with Thunderstorms 90 32.2 75 23.9 62 62 SSE 12 19 30.06 1018 10 16 0.00 0.00
2:53 pm 14:53 Sunny with Thunderstorms 91 32.8 74 23.3 57 57 S 6 9 30.06 1018 10 16 0.00 0.00
3:08 pm 15:08 Sunny with Nearby Thunderstorms 88 31.1 74 23.3 63 63 S 7 11 30.07 1018 10 16 0.00 0.00
3:33 pm 15:33 Sunny 90 32.2 75 23.9 62 62 S 5 7 30.06 1018 10 16 0.00 0.00
3:53 pm 15:53 Sunny 89 31.7 74 23.3 61 61 SW 5 7 30.06 1018 10 16 0.00 0.00
4:53 pm 16:53 Sunny 88 31.1 75 23.9 66 66 S 8 13 30.04 1017 10 16 0.00 0.00
5:53 pm 17:53 Sunny 87 30.6 74 23.3 65 65 S 3 6 30.04 1017 10 16 0.00 0.00
6:53 pm 18:53 Sunny 86 30 76 24.4 72 72 SSE 6 9 30.04 1017 10 16 0.00 0.00
7:31 pm 19:31 Sunny with Nearby Thunderstorms 83 28.3 76 24.4 79 79 SSE 6 9 30.04 1017 10 16 0.00 0.00
7:46 pm 19:46 Sunny 83 28.3 76 24.4 79 79 SSE 7 11 30.03 1017 10 16 0.00 0.00
7:53 pm 19:53 Sunny 82 27.8 76 24.4 82 82 SSE 6 9 30.03 1017 10 16 0.00 0.00
8:53 pm 20:53 Mostly Clear N/A N/A N/A SSE 3 6 30.05 1018 10 16 0.00 0.00
9:53 pm 21:53 Mostly Clear N/A N/A N/A SE 8 13 30.07 1018 10 16 0.00 0.00
10:53 pm 22:53 undefined N/A N/A N/A undefined N/A 30.08 1019 N/A 0.00 0.00
11:53 pm 23:53 undefined N/A N/A N/A undefined N/A 30.07 1018 N/A 0.00 0.00

Powered by AerisWeather